Location: �terpigny
(49.8910°N, 2.9249°E)
Time: 12:21:29
(UTC+00:00)

Orbus 7S? - Pass Details

Date: 24 October 2021
Orbit: 328 x 6409 km, 56.9° (Epoch: 01 November)

Event Time Altitude Azimuth Distance (km) Brightness Sun altitude
Rises 19:02:20 0° 305° (NW) 5,761 9.5 -23.6°
Reaches altitude 10° 19:07:19 10° 303° (WNW) 3,812 8.5 -24.4°
Maximum altitude 19:15:06 50° 231° (SW) 985 4.7 -25.6°
Enters shadow 19:16:02 43° 193° (SSW) 985 4.5 -25.8°
